Flight Track Log - Related Links

Times and Time Zones

All times are in EDT time to prevent confusion due to time zone crossing. See the AWE3794 flight status page for this flight to view local times or setup timezone preferences in your user account.

Time Position Orientation Groundspeed Altitude Reporting Facility
EDT Latitude Longitude Course Direction KTS MPH feet Rate Location/Type
04:33PM 40.8000 -73.9000 323° Northwest 169 194 1,700  Level New York TRACON
04:34PM 40.8333 -73.9333 323° Northwest 202 232 4,900 1,650 Climbing New York TRACON
04:35PM 40.9000 -73.9833 330° Northwest 253 291 5,000 95 Climbing New York TRACON
04:36PM 40.9500 -74.0167 333° Northwest 284 327 5,100 850 Climbing New York TRACON
04:37PM 41.0333 -73.9667 24° Northeast 306 352 6,700 1,096 Climbing New York TRACON
04:38PM 41.0667 -74.0167 311° West 264 304 7,200 1,300 Climbing New York TRACON
04:39PM 41.0000 -74.0500 201° Southwest 251 289 9,300 1,600 Climbing New York TRACON
04:40PM 40.9500 -74.1000 217° Southwest 243 280 10,400 1,357 Climbing New York TRACON
04:41PM 40.9167 -74.1667 237° Southwest 281 323 11,900 1,776 Climbing New York TRACON
04:42PM 40.8833 -74.2833 249° West 302 348 14,100 1,968 Climbing New York TRACON
04:43PM 40.8833 -74.3833 270° West 299 344 16,000 1,268 Climbing New York TRACON
04:45PM 40.8786 -74.5419 268° West 314 361 17,100 465 Climbing New York Center
04:46PM 40.8828 -74.6628 273° West 326 375 17,100 633 Level New York Center
04:48PM 40.8364 -74.8686 253° West 315 362 19,000 833 Climbing New York Center
04:49PM 40.8033 -74.9764 248° West 310 357 19,600 950 Climbing New York Center
04:50PM 40.7747 -75.0814 250° West 305 351 20,900 1,160 Climbing New York Center
04:51PM 40.7436 -75.1864 249° West 305 351 21,900 950 Climbing New York Center
04:52PM 40.7103 -75.2964 248° West 310 357 22,800 992 Climbing New York Center
04:53PM 40.6647 -75.3947 239° Southwest 310 357 23,900 600 Climbing New York Center
04:54PM 40.6194 -75.4872 237° Southwest 327 376 24,000 50 Climbing New York Center
04:55PM 40.5794 -75.6019 245° Southwest 333 383 24,000 450 Level New York Center
04:56PM 40.5494 -75.7200 252° West 339 390 24,900 950 Climbing New York Center
04:57PM 40.5197 -75.8328 251° West 339 390 25,900 900 Climbing New York Center
04:58PM 40.4828 -75.9636 250° West 350 403 26,700 650 Climbing New York Center
04:59PM 40.4525 -76.0842 252° West 350 403 27,200 650 Climbing New York Center
05:00PM 40.4197 -76.2044 250° West 350 403 28,000 400 Climbing New York Center
05:01PM 40.3869 -76.3272 251° West 350 403 28,000  Level New York Center
05:02PM 40.3564 -76.4472 252° West 355 409 28,000  Level New York Center
05:03PM 40.3200 -76.5533 246° West 362 417 28,000  Level New York Center
05:04PM 40.2725 -76.6689 242° Southwest 362 417 28,000  Level New York Center
05:05PM 40.2228 -76.7844 241° Southwest 367 422 28,000  Level New York Center
05:06PM 40.1933 -76.9122 253° West 372 428 28,000 -313 Level New York Center
05:08PM 40.1283 -77.2339 255° West 342 394 26,900 -679 Descending Cleveland Center
05:09PM 40.1025 -77.3547 254° West 345 397 25,600 -1,258 Descending Cleveland Center
05:10PM 40.0758 -77.4753 254° West 346 398 24,300 -1,258 Descending Cleveland Center
05:11PM 40.0503 -77.5953 254° West 344 396 23,000 -1,113 Descending Cleveland Center
05:12PM 40.0244 -77.7142 254° West 341 392 22,000 -484 Descending Cleveland Center
05:13PM 39.9994 -77.8294 254° West 334 384 22,000  Level Cleveland Center
05:14PM 40.0078 -77.9736 274° West 337 388 22,000  Level Cleveland Center
05:15PM 40.0219 -78.0900 279° West 329 379 22,000 -629 Level Cleveland Center
05:16PM 40.0358 -78.2169 278° West 344 396 20,700 -1,355 Descending Cleveland Center
05:17PM 40.0514 -78.3467 279° West 343 395 19,200 -1,500 Descending Cleveland Center
05:19PM 40.0650 -78.4697 278° West 344 396 17,600 -1,452 Descending Cleveland Center
05:20PM 40.0783 -78.5925 278° West 344 396 16,200 -1,355 Descending Cleveland Center
05:21PM 40.0917 -78.7175 278° West 346 398 14,800 -1,355 Descending Cleveland Center
05:22PM 40.1050 -78.8406 278° West 345 397 13,400 -1,500 Descending Cleveland Center
05:23PM 40.1208 -78.9831 278° West 338 389 11,700 -1,500 Descending Cleveland Center
05:24PM 40.1325 -79.0956 278° West 327 376 10,300 -774 Descending Cleveland Center
05:25PM 40.1436 -79.2044 278° West 317 365 10,100 -145 Descending Cleveland Center
05:26PM 40.1567 -79.3158 279° West 310 357 10,000 -48 Descending Cleveland Center
05:27PM 40.1672 -79.4233 277° West 293 337 10,000  Level Cleveland Center
05:28PM 40.1972 -79.5258 291° West 299 344 10,000  Level Cleveland Center
05:29PM 40.2600 -79.6336 307° West 311 358 10,000 -339 Level Cleveland Center
05:30PM 40.3044 -79.7092 308° West 245 282 9,300 -968 Descending Cleveland Center
05:31PM 40.3442 -79.7797 306° West 241 277 8,000 -1,452 Descending Cleveland Center
05:32PM 40.3867 -79.8528 307° West 252 290 6,300 -1,694 Descending Cleveland Center
05:33PM 40.4308 -79.9322 306° West 266 306 4,500 -1,161 Descending Cleveland Center
05:34PM 40.4767 -80.0172 305° West 251 289 3,900 -677 Descending Cleveland Center
05:35PM 40.4817 -80.0806 276° West 202 232 3,100 -726 Descending Cleveland Center
05:36PM 40.4825 -80.1350 271° West 170 196 2,400 -720 Descending Cleveland Center
05:37PM 40.4833 -80.1778 271° West 135 155 1,600 -762 Descending Cleveland Center

Login

Don't have an account? Register now (free) for customized features, flight alerts, and more!